Location: Riedlingen
(48.1569°N, 9.4757°E)
Time: 03:56:06
(UTC+02:00)

ISS - Pass Details

Date: 15 May 2021
Orbit: 417 x 422 km, 51.6° (Epoch: 15 June)

Event Time Altitude Azimuth Distance (km) Brightness Sun altitude
Rises 03:38:33 0° 292° (WNW) 2,375 -0.1 -16.0°
Reaches altitude 10° 03:40:39 10° 291° (WNW) 1,509 -1.1 -15.8°
Maximum altitude 03:44:02 76° 206° (SSW) 439 -3.9 -15.5°
Drops below altitude 10° 03:47:25 10° 120° (ESE) 1,505 -0.9 -15.1°
Sets 03:49:31 0° 119° (ESE) 2,367 0.2 -14.9°
